Sioux City, IA

4:42 AM CDT on June 28, 2017 (GMT -0500)
Sioux Gateway

Weather History for KSUX - August, 2011

Change the Weather History Date:

Thursday, August 25, 2011

  Actual Average Record
Temperature  
Mean Temperature 67 °F 71 °F  
Max Temperature 83 °F 82 °F 102 °F (1955)
Min Temperature 50 °F 59 °F 44 °F (1915)
Degree Days  
Heating Degree Days 0 1  
Month to date heating degree days 0 3  
Since 1 June heating degree days 13 33  
Since 1 July heating degree days 0 6  
Cooling Degree Days 2 6  
Month to date cooling degree days 238 198  
Year to date cooling degree days 981 743  
Since 1 June cooling degree days 915 679  
Growing Degree Days 16 (Base 50)    
Moisture  
Dew Point 56 °F    
Average Humidity 80    
Maximum Humidity 100    
Minimum Humidity 44    
Precipitation  
Precipitation 0.00 in 0.10 in 2.21 in (1992)
Month to date precipitation 2.15 2.58  
Year to date precipitation 22.38 19.89  
Snow  
Snow 0.00 in 0.00 in 0.00 in ()
Month to date snowfall 0.0 0.0  
Since 1 June snowfall 0.0 0.0  
Since 1 July snowfall 0.0 0.0  
Snow Depth 0.00 in    
Sea Level Pressure  
Sea Level Pressure 30.04 in    
Wind  
Wind Speed 5 mph (South)    
Max Wind Speed 16 mph    
Max Gust Speed -    
Visibility 8 miles    
Events      
T = Trace of Precipitation, MM = Missing Value Source: NWS Daily Summary

Daily Weather History Graph

Daily Weather History Graph

Search for Another Location

Airport or City:

Trip Planner

Search our weather history database for the weather conditions in past years. The results will help you decide how hot, cold, wet, or windy it might be!

Date:

Astronomy

Aug. 25, 2011 Rise Set
Actual Time 6:42 AM CDT 8:11 PM CDT
Civil Twilight 6:13 AM CDT 8:40 PM CDT
Nautical Twilight 5:37 AM CDT 9:16 PM CDT
Astronomical Twilight 5:00 AM CDT 9:53 PM CDT
Moon 2:39 AM CDT (8/25) 5:50 PM CDT (8/25)
Length of Visible Light 14h 27m
Length of Day
13h 28m
Waning Crescent, 15% of the Moon is Illuminated
Aug 25
Waning Crescent
Aug 28
New
Sep 4
First Quarter
Sep 12
Full
Sep 20
Last Quarter

Hourly Weather History & Observations

Time (CDT) Temp. Heat Index Dew Point Humidity Pressure Visibility Wind Dir Wind Speed Gust Speed Precip Events Conditions
12:52 AM 57.0 °F - 54.0 °F 89% 30.01 in 10.0 mi West 6.9 mph - N/A   Clear
1:52 AM 57.9 °F - 55.0 °F 90% 30.03 in 10.0 mi Calm Calm - N/A   Clear
2:52 AM 55.0 °F - 53.1 °F 93% 30.03 in 10.0 mi WNW 3.5 mph - N/A   Clear
3:52 AM 54.0 °F - 53.1 °F 97% 30.04 in 2.5 mi Calm Calm - N/A   Clear
3:57 AM 51.8 °F - 51.8 °F 100% 30.05 in 0.8 mi Calm Calm - N/A   Clear
4:07 AM 51.8 °F - 51.8 °F 100% 30.06 in 2.5 mi West 3.5 mph - N/A   Clear
4:14 AM 53.6 °F - 53.6 °F 100% 30.06 in 6.0 mi Calm Calm - N/A   Clear
4:20 AM 53.6 °F - 53.6 °F 100% 30.06 in 1.5 mi Calm Calm - N/A   Clear
4:30 AM 53.6 °F - 53.6 °F 100% 30.05 in 0.8 mi Calm Calm - N/A   Clear
4:37 AM 53.6 °F - 53.6 °F 100% 30.05 in 2.0 mi WNW 3.5 mph - N/A   Clear
4:44 AM 53.6 °F - 53.6 °F 100% 30.06 in 10.0 mi WNW 3.5 mph - N/A   Clear
4:52 AM 55.0 °F - 54.0 °F 96% 30.04 in 10.0 mi Calm Calm - N/A   Clear
5:52 AM 55.9 °F - 54.0 °F 93% 30.06 in 10.0 mi Calm Calm - N/A   Clear
6:23 AM 51.8 °F - 50.0 °F 94% 30.08 in 1.2 mi Calm Calm - N/A   Clear
6:25 AM 51.8 °F - 50.0 °F 94% 30.08 in 10.0 mi Calm Calm - N/A   Clear
6:52 AM 50.0 °F - 50.0 °F 100% 30.08 in 10.0 mi Calm Calm - N/A   Clear
6:56 AM 50.0 °F - 48.2 °F 94% 30.09 in 10.0 mi Calm Calm - N/A   Clear
7:52 AM 55.0 °F - 54.0 °F 96% 30.09 in 10.0 mi Calm Calm - N/A   Clear
8:52 AM 63.0 °F - 57.9 °F 84% 30.11 in 10.0 mi Calm Calm - N/A   Clear
9:52 AM 69.1 °F - 59.0 °F 70% 30.10 in 10.0 mi Calm Calm - N/A   Clear
10:52 AM 73.9 °F - 57.0 °F 55% 30.10 in 10.0 mi SSE 5.8 mph - N/A   Clear
11:52 AM 77.0 °F - 55.0 °F 47% 30.09 in 10.0 mi South 8.1 mph - N/A   Clear
12:52 PM 79.0 °F - 55.9 °F 45% 30.08 in 10.0 mi South 5.8 mph - N/A   Clear
1:52 PM 81.0 °F 81.1 °F 57.9 °F 45% 30.06 in 10.0 mi South 6.9 mph - N/A   Clear
2:52 PM 81.0 °F 81.1 °F 57.9 °F 45% 30.03 in 10.0 mi South 10.4 mph - N/A   Clear
3:52 PM 82.0 °F 82.0 °F 57.9 °F 44% 30.01 in 10.0 mi South 8.1 mph - N/A   Partly Cloudy
4:52 PM 82.0 °F 82.0 °F 57.9 °F 44% 30.00 in 10.0 mi SSE 10.4 mph - N/A   Partly Cloudy
5:52 PM 81.0 °F 81.1 °F 57.9 °F 45% 29.99 in 10.0 mi South 10.4 mph - N/A   Partly Cloudy
6:52 PM 79.0 °F - 61.0 °F 54% 29.98 in 10.0 mi SSE 10.4 mph - N/A   Clear
7:52 PM 75.0 °F - 62.1 °F 64% 29.96 in 10.0 mi SSE 8.1 mph - N/A   Clear
8:52 PM 70.0 °F - 62.1 °F 76% 29.97 in 10.0 mi SE 5.8 mph - N/A   Clear
9:52 PM 66.9 °F - 62.1 °F 84% 29.98 in 10.0 mi ESE 8.1 mph - N/A   Clear
10:52 PM 64.0 °F - 60.1 °F 87% 29.98 in 10.0 mi ESE 8.1 mph - N/A   Clear
11:52 PM 64.0 °F - 60.1 °F 87% 29.99 in 10.0 mi ESE 6.9 mph - N/A   Clear